| time (UTC) | temp C | wind direction | speed KPH | gust KPH | rain 1hr cm | rain 24hr cm | rain mn cm | humidity % | barometer mb |
| 20260504081539 | 15 | 49 | 0.0 | 1.6 | 0.00 | 0.00 | 0.00 | 72 | 1009.7 |
| 20260504070248 | 18 | 254 | 0.0 | 0.0 | 0.00 | 0.00 | 0.00 | 60 | 1010.0 |
| 20260504045943 | 20 | 6 | 0.0 | 4.8 | 0.00 | 0.00 | 0.00 | 55 | 1009.6 |
| 20260504042735 | 21 | 6 | 1.6 | 4.8 | 0.00 | 0.00 | 0.00 | 52 | 1009.5 |
| 20260504041741 | 21 | 350 | 1.6 | 4.8 | 0.00 | 0.00 | 0.00 | 53 | 1009.5 |
| 20260504040710 | 21 | 6 | 1.6 | 4.8 | 0.00 | 0.00 | 0.00 | 54 | 1009.4 |
| 20260504035728 | 21 | 337 | 1.6 | 4.8 | 0.00 | 0.00 | 0.00 | 53 | 1009.4 |
| 20260504034716 | 22 | 359 | 1.6 | 4.8 | 0.00 | 0.00 | 0.00 | 53 | 1009.3 |
| 20260504033703 | 22 | 354 | 1.6 | 4.8 | 0.00 | 0.00 | 0.00 | 50 | 1009.3 |
| 20260504031623 | 23 | 295 | 1.6 | 6.4 | 0.00 | 0.00 | 0.00 | 48 | 1009.2 |
| 20260504030615 | 23 | 294 | 1.6 | 4.8 | 0.00 | 0.00 | 0.00 | 47 | 1009.3 |
| 20260504025626 | 24 | 288 | 1.6 | 6.4 | 0.00 | 0.00 | 0.00 | 46 | 1009.2 |
| 20260504024649 | 24 | 328 | 1.6 | 9.7 | 0.00 | 0.00 | 0.00 | 45 | 1009.3 |
| 20260504023709 | 24 | 333 | 3.2 | 12.9 | 0.00 | 0.00 | 0.00 | 45 | 1009.2 |
| 20260504022709 | 25 | 353 | 3.2 | 12.9 | 0.00 | 0.00 | 0.00 | 44 | 1009.3 |
| 20260504021714 | 25 | 302 | 1.6 | 11.3 | 0.00 | 0.00 | 0.00 | 44 | 1009.3 |
| 20260504020656 | 25 | 290 | 4.8 | 12.9 | 0.00 | 0.00 | 0.00 | 44 | 1009.3 |
| 20260504014533 | 26 | 290 | 4.8 | 11.3 | 0.00 | 0.00 | 0.00 | 42 | 1009.4 |
| 20260504013458 | 27 | 340 | 6.4 | 14.5 | 0.00 | 0.00 | 0.00 | 41 | 1009.4 |
| 20260504012453 | 27 | 278 | 4.8 | 14.5 | 0.00 | 0.00 | 0.00 | 39 | 1009.4 |
| 20260504011509 | 27 | 306 | 4.8 | 12.9 | 0.00 | 0.00 | 0.00 | 40 | 1009.5 |
| 20260504005253 | 28 | 319 | 3.2 | 11.3 | 0.00 | 0.00 | 0.00 | 39 | 1009.7 |
| 20260504004240 | 28 | 337 | 4.8 | 11.3 | 0.00 | 0.00 | 0.00 | 38 | 1009.8 |
| 20260504003258 | 28 | 320 | 4.8 | 11.3 | 0.00 | 0.00 | 0.00 | 39 | 1009.9 |
| 20260504002304 | 27 | 294 | 4.8 | 12.9 | 0.00 | 0.00 | 0.00 | 40 | 1010.0 |
| 20260504001250 | 27 | 300 | 4.8 | 14.5 | 0.00 | 0.00 | 0.00 | 40 | 1010.1 |
| 20260504000248 | 28 | 342 | 3.2 | 14.5 | 0.00 | 0.00 | 0.00 | 41 | 1010.2 |
| 20260503235304 | 27 | 320 | 4.8 | 14.5 | 0.00 | 0.00 | 0.00 | 40 | 1010.2 |
| 20260503234312 | 28 | 300 | 4.8 | 14.5 | 0.00 | 0.00 | 0.00 | 40 | 1010.3 |
| 20260503233254 | 27 | 296 | 3.2 | 12.9 | 0.00 | 0.00 | 0.00 | 40 | 1010.4 |
| 20260503232316 | 28 | 298 | 3.2 | 12.9 | 0.00 | 0.00 | 0.00 | 41 | 1010.5 |
| 20260503230140 | 28 | 345 | 3.2 | 16.1 | 0.00 | 0.00 | 0.00 | 40 | 1010.8 |
| 20260503225106 | 27 | 301 | 6.4 | 17.7 | 0.00 | 0.00 | 0.00 | 42 | 1011.0 |
| 20260503224109 | 27 | 1 | 4.8 | 17.7 | 0.00 | 0.00 | 0.00 | 41 | 1011.1 |
| 20260503223039 | 28 | 319 | 4.8 | 14.5 | 0.00 | 0.00 | 0.00 | 40 | 1011.2 |
| 20260503215736 | 27 | 304 | 3.2 | 14.5 | 0.00 | 0.00 | 0.00 | 40 | 1011.4 |
| 20260503214746 | 27 | 338 | 4.8 | 14.5 | 0.00 | 0.00 | 0.00 | 42 | 1011.5 |
| 20260503213757 | 27 | 286 | 3.2 | 12.9 | 0.00 | 0.00 | 0.00 | 41 | 1011.6 |
| 20260503212729 | 26 | 349 | 4.8 | 12.9 | 0.00 | 0.00 | 0.00 | 43 | 1011.7 |
| 20260503211726 | 26 | 339 | 4.8 | 14.5 | 0.00 | 0.00 | 0.00 | 43 | 1011.8 |
| 20260503210723 | 26 | 280 | 4.8 | 14.5 | 0.00 | 0.00 | 0.00 | 44 | 1011.8 |
| 20260503205721 | 26 | 347 | 4.8 | 12.9 | 0.00 | 0.00 | 0.00 | 46 | 1012.0 |
| 20260503203627 | 25 | 325 | 4.8 | 12.9 | 0.00 | 0.00 | 0.00 | 44 | 1012.2 |
| 20260503202630 | 25 | 359 | 4.8 | 14.5 | 0.00 | 0.00 | 0.00 | 45 | 1012.3 |
| 20260503200501 | 25 | 291 | 4.8 | 12.9 | 0.00 | 0.00 | 0.00 | 47 | 1012.5 |
| 20260503194339 | 25 | 18 | 3.2 | 12.9 | 0.00 | 0.00 | 0.00 | 48 | 1012.8 |
| 20260503193325 | 23 | 279 | 4.8 | 14.5 | 0.00 | 0.00 | 0.00 | 49 | 1012.9 |
| 20260503192310 | 23 | 296 | 6.4 | 14.5 | 0.00 | 0.00 | 0.00 | 48 | 1013.0 |
| 20260503191239 | 24 | 330 | 4.8 | 12.9 | 0.00 | 0.00 | 0.00 | 47 | 1013.2 |
| 20260503190229 | 24 | 359 | 4.8 | 12.9 | 0.00 | 0.00 | 0.00 | 48 | 1013.4 |
| 20260503185229 | 25 | 31 | 3.2 | 8.0 | 0.00 | 0.00 | 0.00 | 48 | 1013.4 |
| 20260503184209 | 24 | 126 | 1.6 | 8.0 | 0.00 | 0.00 | 0.00 | 50 | 1013.6 |
| 20260503183231 | 23 | 53 | 0.0 | 3.2 | 0.00 | 0.00 | 0.00 | 54 | 1013.7 |
| 20260503175942 | 21 | 352 | 1.6 | 6.4 | 0.00 | 0.00 | 0.00 | 57 | 1013.9 |
| 20260503174927 | 21 | 332 | 1.6 | 8.0 | 0.00 | 0.00 | 0.00 | 60 | 1014.1 |
| 20260503173942 | 21 | 23 | 1.6 | 8.0 | 0.00 | 0.00 | 0.00 | 59 | 1014.1 |
| 20260503171903 | 20 | 284 | 1.6 | 8.0 | 0.00 | 0.00 | 0.00 | 63 | 1014.3 |
| 20260503170850 | 19 | 271 | 3.2 | 8.0 | 0.00 | 0.00 | 0.00 | 64 | 1014.4 |
| 20260503131202 | 11 | 44 | 0.0 | 3.2 | 0.00 | 0.00 | 0.00 | 86 | 1014.7 |
| 20260503130142 | 11 | 37 | 0.0 | 0.0 | 0.00 | 0.00 | 0.00 | 85 | 1014.7 |
| 20260503110707 | 12 | 37 | 1.6 | 1.6 | 0.00 | 0.00 | 0.00 | 82 | 1014.9 |